Home   Weather   Khanty-Mansiysk   Past weeks
Flag for Russia

Past Weather in Khanty-Mansiysk, Russia — Yesterday and Last 2 Weeks

Now
27 °F

Clear.


Feels Like: 17 °F
Forecast: 32 / 26 °F
Wind: 10 mph from Southwest

Location: Hanty-Mansijsk

Current Time: Oct 21, 2019 at 3:52:54 am

Latest Report: Oct 21, 2019 at 3:00 am


Visibility: 10 mi

Pressure: 30.09 "Hg

Humidity: 69%

Dew Point: 18 °F

Location of Khanty-MansiyskLocation

Past Weather in Khanty-Mansiysk — Graph

°F

Khanty-Mansiysk Temperature Yesterday

Maximum temperature yesterday: 30 °F (at 1:30 pm)
Minimum temperature yesterday: 19 °F (at 5:00 am)
Average temperature yesterday: 25 °F

High & Low Weather Summary for the Past Weeks

 TemperatureHumidityPressure
High63 °F (Oct 6, 1:30 pm)100% (Oct 8, 12:00 am)30.48 "Hg (Oct 8, 12:00 am)
Low19 °F (Oct 20, 5:00 am)42% (Oct 6, 1:30 pm)29.45 "Hg (Oct 15, 7:00 pm)
Average38 °F73%30.05 "Hg
* Reported Oct 6 2:00 am — Oct 21 2:30 am, Khanty-Mansiysk. Weather by CustomWeather, © 2019

Note: Actual official high and low records may vary slightly from our data, if they occured in-between our weather recording intervals... More about our weather records

Advertising

Khanty-Mansiysk Weather History for the Previous 24 Hours

Scroll right to see more
 ConditionsComfort  
Time TempWeatherWind HumidityBarometerVisibility
2:30 am
Mon, Oct 21
27 °FClear.13 mph69%30.09 "Hg10 mi
2:00 am27 °FClear.13 mph69%30.09 "Hg10 mi
1:30 am27 °FClear.15 mph69%30.09 "Hg10 mi
1:00 am27 °FClear.15 mph64%30.12 "Hg10 mi
12:30 am27 °FClear.13 mph64%30.12 "Hg10 mi
12:00 am27 °FClear.15 mph64%30.15 "Hg10 mi
11:30 pm
Sun, Oct 20
27 °FClear.15 mph64%30.15 "Hg10 mi
11:00 pm27 °FClear.15 mph64%30.15 "Hg10 mi
10:30 pm27 °FClear.15 mph64%30.18 "Hg10 mi
10:00 pm27 °FClear.17 mph64%30.18 "Hg10 mi
9:30 pm27 °FClear.15 mph64%30.21 "Hg10 mi
9:00 pm27 °FClear.15 mph64%30.21 "Hg10 mi
8:30 pm28 °FClear.15 mph59%30.21 "Hg10 mi
8:00 pm28 °FClear.15 mph59%30.24 "Hg10 mi
7:30 pm28 °FClear.15 mph59%30.24 "Hg10 mi
7:00 pm28 °FClear.15 mph59%30.27 "Hg10 mi
6:30 pm28 °FClear.13 mph59%30.27 "Hg10 mi
6:00 pm28 °FClear.15 mph59%30.30 "Hg10 mi
5:30 pm28 °FClear.15 mph59%30.30 "Hg10 mi
5:00 pm28 °FClear.15 mph59%30.30 "Hg10 mi
4:30 pm28 °FSunny.15 mph59%30.33 "Hg10 mi
4:00 pm30 °FSunny.13 mph51%30.33 "Hg10 mi
3:30 pm30 °FSunny.13 mph51%30.33 "Hg10 mi
3:00 pm30 °FSunny.13 mph51%30.36 "Hg10 mi
2:30 pm30 °FSunny.13 mph51%30.36 "Hg10 mi
2:00 pm30 °FSunny.17 mph51%30.39 "Hg10 mi
1:30 pm30 °FSunny.13 mph51%30.39 "Hg10 mi
1:00 pm28 °FSunny.15 mph55%30.39 "Hg10 mi
12:30 pm28 °FSunny.15 mph55%30.42 "Hg10 mi
12:00 pm27 °FSunny.13 mph59%30.42 "Hg10 mi
11:30 am27 °FSunny.15 mph59%30.42 "Hg10 mi
11:00 am25 °FSunny.13 mph63%30.45 "Hg10 mi
10:30 am25 °FSunny.13 mph63%30.45 "Hg10 mi
10:00 am23 °FSunny.10 mph68%30.45 "Hg10 mi
9:30 am23 °FSunny.10 mph68%30.45 "Hg10 mi
9:00 am23 °FSunny.10 mph68%30.45 "Hg10 mi
8:30 am21 °FSunny.8 mph74%30.48 "Hg10 mi
8:00 am21 °FSunny.8 mph74%30.48 "Hg10 mi
7:30 am21 °FSunny.6 mph80%30.48 "Hg10 mi
7:00 am21 °FClear.6 mph74%30.48 "Hg10 mi
6:30 am19 °FClear.6 mph79%30.48 "Hg10 mi
6:00 am19 °FClear.6 mph73%30.48 "Hg10 mi
5:30 am19 °FClear.3 mph79%30.48 "Hg10 mi
5:00 am19 °FClear.3 mph79%30.48 "Hg10 mi
4:30 am21 °FClear.6 mph74%30.48 "Hg10 mi
4:00 am21 °FClear.3 mph74%30.48 "Hg10 mi
3:30 am21 °FClear.1 mph74%30.48 "Hg10 mi
3:00 am21 °FClear.1 mph74%30.48 "Hg10 mi
Weather by CustomWeather, © 2019

See weather overview